Date,TemperatureHighF,TemperatureAvgF,TemperatureLowF,DewpointHighF,DewpointAvgF,DewpointLowF,HumidityHigh,HumidityAvg,HumidityLow,PressureMaxIn,PressureMinIn,WindSpeedMaxMPH,WindSpeedAvgMPH,GustSpeedMaxMPH,PrecipitationSumIn
2013-1-1,19.6,12.4,7.2,-16.4,-21.3,-26.2,22,20,17,30.21,30.06,8,3,8,0.00
2013-1-2,32.2,19.9,7.2,2.3,-14.8,-26.5,33,21,15,30.15,29.97,12,2,12,0.00
2013-1-3,29.3,23.4,12.6,8.5,-5.9,-15.6,41,28,16,30.26,30.00,12,4,12,0.00
2013-1-4,33.6,22.6,10.6,2.1,-6.6,-15.5,40,28,18,30.21,30.12,10,3,10,0.00
2013-1-5,36.7,30.1,20.7,16.7,9.0,0.4,47,41,22,30.12,29.88,13,3,13,0.04
2013-1-6,29.3,21.5,15.8,3.5,-5.5,-15.0,38,30,16,30.24,29.91,13,4,13,0.00
2013-1-7,40.5,29.5,16.9,6.1,-3.0,-9.0,37,26,13,30.21,29.97,15,4,15,0.00
2013-1-8,43.3,35.7,27.7,6.2,1.8,-3.5,35,24,15,30.03,29.91,12,4,12,0.00
2013-1-9,45.0,36.9,27.9,12.6,2.1,-7.9,39,24,13,30.38,29.94,12,3,12,0.00
2013-1-10,40.6,34.4,26.2,28.2,9.2,-7.6,65,38,13,30.38,29.73,18,5,18,0.51
2013-1-11,54.0,47.6,38.7,44.8,32.3,21.1,74,58,28,29.73,29.56,15,5,15,0.00
2013-1-12,52.2,34.5,21.2,24.0,3.0,-14.8,44,27,15,29.97,29.59,15,5,15,0.00
2013-1-13,21.0,16.1,11.3,2.5,-16.3,-23.1,44,22,17,30.18,29.85,15,4,15,0.00
2013-1-14,24.1,15.1,6.4,-14.5,-20.6,-27.1,19,18,17,30.38,30.18,7,1,7,0.00
2013-1-15,29.1,18.2,9.1,-3.6,-17.4,-24.9,38,19,15,30.35,30.03,9,1,9,0.00
2013-1-16,37.0,27.7,14.4,14.4,-6.6,-17.7,40,23,14,30.06,29.79,13,2,13,0.00
2013-1-17,36.3,28.2,21.6,12.5,-8.8,-16.6,37,20,15,30.32,30.00,15,4,15,0.00
2013-1-18,46.9,41.7,28.8,1.0,-1.8,-8.1,20,16,14,30.21,29.85,15,6,15,0.00
2013-1-19,50.7,41.0,21.9,9.1,-0.7,-16.8,29,17,11,30.06,29.73,29,5,29,0.00
2013-1-20,21.6,14.9,10.2,-7.7,-19.0,-24.0,34,20,17,30.30,30.06,16,4,16,0.00
2013-1-21,12.9,7.2,1.9,-18.9,-23.7,-28.3,22,22,22,30.26,30.12,15,6,15,0.00
2013-1-22,13.6,7.6,-0.4,-18.3,-23.5,-30.3,22,22,22,30.35,30.24,10,2,10,0.00
2013-1-23,30.0,18.5,11.3,-12.2,-17.7,-23.1,22,19,15,30.32,30.06,17,3,17,0.00
2013-1-24,21.6,13.9,5.0,-16.8,-21.8,-28.4,19,18,17,30.56,30.18,17,5,17,0.00
2013-1-25,29.5,22.1,16.0,-12.3,-16.3,-20.2,20,17,15,30.21,30.00,13,4,13,0.00
2013-1-26,29.7,20.7,9.1,-12.2,-17.3,-24.9,19,17,15,30.35,30.15,10,2,10,0.00
2013-1-27,43.2,32.4,27.7,32.0,6.0,-13.3,65,38,15,30.21,29.73,14,6,14,0.31
2013-1-28,54.5,43.7,39.6,45.9,34.3,29.9,75,69,64,29.91,29.65,12,3,12,0.00
2013-1-29,61.7,51.6,37.0,49.7,38.7,28.5,74,62,42,29.65,29.41,16,4,16,0.75
2013-1-30,37.0,27.7,14.4,28.5,14.5,-8.6,74,58,34,29.70,29.29,17,6,17,0.20
2013-1-31,17.1,9.3,0.7,-4.2,-19.1,-27.7,38,26,24,30.21,29.70,18,7,18,0.00
2013-2-1,20.5,6.6,-2.4,-8.4,-23.3,-30.4,27,23,18,30.35,30.03,13,4,13,0.00
2013-2-2,25.2,19.6,14.2,5.9,-9.5,-20.2,44,28,17,30.09,29.94,15,3,15,0.00
2013-2-3,27.0,21.1,16.0,3.1,-10.0,-18.1,45,26,16,30.09,29.88,15,3,15,0.00
2013-2-4,27.9,23.9,15.1,0.0,-9.6,-14.1,34,22,16,29.94,29.73,15,4,15,0.00
2013-2-5,38.1,28.2,14.5,7.5,0.1,-8.5,42,30,16,30.03,29.79,12,3,12,0.00
2013-2-6,47.5,34.0,20.5,9.5,2.1,-4.1,44,27,14,30.15,29.97,14,4,14,0.08
2013-2-7,37.2,35.5,32.0,25.6,20.9,9.9,70,55,33,30.03,29.85,12,4,12,0.55
2013-2-8,31.6,28.3,25.5,15.1,2.0,-2.9,50,32,25,30.32,30.03,13,1,13,0.00
2013-2-9,39.0,30.3,25.3,12.5,3.4,-6.1,43,33,16,30.30,29.94,16,3,16,0.00
2013-2-10,49.6,40.9,32.7,36.9,20.7,-1.8,66,48,14,29.97,29.41,20,9,20,0.20
2013-2-11,37.4,32.2,28.2,8.6,-5.5,-10.4,30,19,15,30.06,29.53,20,8,20,0.00
2013-2-12,38.5,30.2,25.9,5.8,-3.3,-11.0,34,24,14,30.12,29.85,10,3,10,0.00
2013-2-13,46.8,35.5,25.2,12.0,2.2,-5.0,44,26,12,29.85,29.67,9,2,9,0.00
2013-2-14,40.3,39.0,36.1,5.5,-0.3,-3.2,27,19,16,29.67,29.62,10,4,10,0.00
2013-2-20,23.4,18.9,15.3,-11.5,-15.4,-18.3,26,20,17,30.35,30.30,10,1,10,0.00
2013-2-21,28.4,21.2,12.2,8.9,-4.1,-15.5,51,33,19,30.35,29.91,25,6,25,0.00
2013-2-22,33.1,27.4,24.3,18.9,7.6,-1.1,56,44,28,29.97,29.79,14,5,14,0.00
2013-2-23,34.5,25.6,17.6,-0.6,-7.8,-14.0,35,23,15,30.00,29.91,10,2,10,0.00
2013-2-24,41.0,26.3,13.3,6.2,-4.3,-10.4,45,29,13,30.15,29.97,9,1,9,0.00
2013-2-25,41.4,32.0,21.2,11.7,0.8,-7.4,47,28,13,30.15,29.91,13,4,13,0.00
2013-2-26,35.2,32.8,30.7,19.4,10.8,-2.1,62,42,20,29.91,29.59,23,10,23,0.00
2013-2-27,33.4,31.3,29.1,19.7,18.1,16.2,62,58,54,29.85,29.65,13,4,13,0.00
2013-2-28,35.1,32.7,30.6,18.9,12.9,6.8,58,45,31,30.12,29.85,13,2,13,0.00
2013-3-1,31.6,27.0,24.4,12.7,-2.1,-12.0,47,29,18,30.26,30.09,16,6,16,0.00
2013-3-2,31.1,22.6,14.9,-1.4,-12.3,-17.7,34,21,15,30.30,30.21,12,3,12,0.00
2013-3-3,37.6,23.5,9.7,0.0,-12.1,-17.7,42,21,14,30.21,30.06,10,2,10,0.00
2013-3-4,37.6,29.6,24.1,4.4,-4.6,-15.0,39,23,14,30.09,29.94,26,9,26,0.00
2013-3-5,31.8,30.1,27.3,16.1,9.8,4.0,54,43,31,30.15,29.88,16,4,16,0.00
2013-3-6,29.5,26.5,22.3,5.7,-2.0,-10.0,42,29,18,30.38,30.15,15,4,15,0.00
2013-3-7,36.3,28.3,23.9,2.0,-3.4,-11.1,35,26,14,30.44,30.32,10,2,10,0.00
2013-3-8,44.4,32.9,21.2,10.4,1.9,-5.8,43,29,13,30.44,30.24,15,6,15,0.00
2013-3-9,42.1,38.0,34.9,26.9,19.0,8.6,57,47,32,30.24,29.79,15,6,15,0.31
2013-3-10,45.3,42.8,38.5,34.9,31.6,26.2,70,65,53,29.79,29.65,16,2,16,1.06
2013-3-11,38.3,33.8,29.1,29.4,20.9,2.2,73,61,31,29.94,29.65,13,1,13,0.04
2013-3-12,37.4,29.1,24.6,13.3,1.6,-12.5,43,31,16,30.18,29.91,15,3,15,0.00
2013-3-13,37.0,27.5,21.2,-2.0,-8.2,-15.0,34,21,14,30.41,30.15,13,4,13,0.00
2013-3-14,41.4,30.4,22.1,6.1,-2.6,-10.4,33,24,16,30.35,30.09,6,1,6,0.00
2013-3-15,47.1,37.7,29.5,17.3,8.3,-0.7,48,32,14,30.09,29.76,13,3,13,0.00
2013-3-16,38.5,34.4,31.1,20.0,6.7,-9.0,59,35,14,30.18,29.76,13,5,13,0.00
2013-3-17,36.7,31.7,25.3,0.9,-7.5,-14.7,25,18,14,30.24,29.94,15,8,15,0.00
2013-3-18,36.7,30.0,21.4,18.1,3.9,-16.9,49,34,17,29.94,29.73,16,6,16,0.04
2013-3-19,36.5,25.3,16.0,-7.8,-14.5,-20.2,18,16,14,30.21,29.91,15,6,15,0.00
2013-3-20,29.3,20.6,12.9,-10.2,-16.9,-21.7,19,18,15,30.26,30.12,17,7,17,0.00
2013-3-21,35.6,22.7,10.8,-7.8,-15.9,-23.5,21,17,14,30.18,30.06,13,2,13,0.00
2013-3-22,43.5,30.0,15.8,1.7,-7.8,-17.5,40,20,13,30.15,30.06,9,1,9,0.00
2013-3-23,45.9,35.5,26.1,0.0,-7.7,-13.3,28,15,12,30.18,30.06,12,3,12,0.00
2013-3-24,34.3,31.0,29.5,16.5,10.9,-9.4,58,44,15,30.06,29.79,15,6,15,0.00
2013-3-25,38.1,32.2,28.2,16.5,-0.2,-9.2,58,28,14,30.18,29.85,13,5,13,0.20
2013-3-26,38.3,34.2,30.0,3.9,-6.6,-12.3,30,17,14,30.32,30.18,9,2,9,0.00
2013-3-27,49.5,37.0,27.5,9.4,-4.6,-12.6,38,18,11,30.41,30.30,9,1,9,0.00
2013-3-28,57.6,41.2,25.3,12.3,-0.4,-9.4,40,19,11,30.41,30.30,8,1,8,0.00
2013-3-29,60.6,46.2,30.9,16.0,2.3,-6.1,40,18,11,30.35,30.26,9,2,9,0.00
2013-3-30,58.3,47.4,36.7,24.8,5.3,-6.5,41,19,12,30.26,29.91,15,4,15,0.00
2013-3-31,58.5,47.0,35.2,32.1,11.7,-9.0,62,30,11,30.06,29.88,15,4,15,0.00
2013-4-1,42.4,33.8,27.3,-0.1,-7.4,-12.9,28,17,13,30.30,30.06,15,5,15,0.00
2013-4-2,48.0,34.3,21.9,2.1,-6.9,-13.5,34,17,12,30.38,30.26,13,3,13,0.00
2013-4-3,51.8,37.7,24.1,-1.3,-7.4,-15.0,22,14,11,30.50,30.32,12,3,12,0.00
2013-4-4,63.3,46.7,30.9,7.8,-1.4,-11.4,15,13,11,30.32,30.09,12,2,12,0.00
2013-4-5,59.9,47.1,34.5,7.1,-0.3,-6.2,22,14,11,30.30,30.12,16,5,16,0.00
2013-4-6,71.6,54.7,39.9,27.8,4.9,-7.1,35,14,9,30.12,29.70,21,8,21,0.00
2013-4-7,66.4,53.0,39.0,23.2,10.9,2.4,40,21,10,30.06,29.82,15,4,15,0.00
2013-4-8,75.7,61.0,47.3,45.1,20.5,2.4,65,27,8,30.03,29.65,15,4,15,0.67
2013-4-9,78.6,57.5,43.5,34.0,26.1,8.4,48,33,8,30.00,29.88,21,7,21,0.00
2013-4-10,43.5,40.8,37.0,30.6,26.8,20.8,65,58,40,30.12,29.79,21,8,21,1.02
2013-4-11,48.0,42.6,36.9,37.2,28.0,11.4,69,57,34,29.82,29.73,18,3,18,0.00
2013-4-12,41.2,38.3,35.1,20.8,10.4,-2.3,50,33,16,30.03,29.70,12,3,12,0.00
2013-4-13,53.1,41.9,34.0,12.6,0.7,-7.6,38,19,11,30.15,30.00,14,4,14,0.00
2013-4-14,79.3,57.7,40.8,35.5,10.7,-1.2,45,18,7,30.09,29.73,17,9,17,0.20
2013-4-15,63.9,51.8,41.2,45.2,22.5,0.7,64,37,11,30.21,29.88,12,2,12,0.52
2013-4-16,51.8,45.0,35.6,19.4,5.8,-1.8,41,21,13,30.41,30.18,12,3,12,0.00
2013-4-17,56.5,45.3,40.3,47.9,24.2,-0.2,73,48,14,30.41,29.91,16,6,16,2.01
2013-4-18,62.6,49.7,37.4,53.1,32.7,8.1,73,54,29,30.00,29.65,6,1,6,1.54
2013-4-19,39.0,36.3,34.9,10.2,1.6,-5.6,33,23,16,30.24,29.79,0,0,0,0.00
2013-4-20,50.4,39.3,29.5,11.3,-0.3,-7.6,41,21,11,30.59,30.21,0,0,0,0.00
2013-4-21,63.3,48.8,37.4,7.7,0.5,-7.6,16,13,11,30.68,30.47,0,0,0,0.00
2013-4-22,73.4,58.9,46.8,22.2,6.0,0.0,29,12,8,30.47,30.26,0,0,0,0.00
2013-4-23,53.6,42.3,37.6,32.7,22.4,9.2,59,46,29,30.30,30.21,0,0,0,0.31
2013-4-24,48.0,41.7,37.4,9.2,1.4,-5.0,30,20,12,30.35,30.24,0,0,0,0.00
2013-4-25,57.9,46.6,35.6,20.6,1.9,-5.5,42,17,11,30.56,30.32,0,0,0,0.00
2013-4-26,70.7,56.9,44.1,11.7,4.6,-5.0,17,12,9,30.56,30.47,0,0,0,0.00
2013-4-27,69.4,57.2,44.1,28.1,14.9,5.5,44,22,10,30.53,30.26,0,0,0,0.00
2013-4-28,76.3,61.6,47.3,32.0,16.2,5.9,46,21,8,30.26,30.12,0,0,0,0.00
2013-4-29,82.9,66.6,50.4,30.7,19.2,8.3,42,21,6,30.18,30.00,0,0,0,0.00
2013-4-30,91.4,75.2,63.5,36.0,18.8,6.0,35,16,4,30.24,30.00,0,0,0,0.00
2013-5-1,90.3,73.9,59.4,26.6,12.4,5.9,24,10,5,30.47,30.24,0,0,0,0.00
2013-5-2,59.2,49.0,39.9,26.8,15.5,3.1,57,28,12,30.50,30.41,0,0,0,0.04
2013-5-3,52.2,42.3,37.4,44.1,32.4,25.6,74,68,57,30.44,30.15,0,0,0,1.73
2013-5-4,70.5,59.1,51.3,54.7,38.1,8.3,75,52,9,30.32,30.12,0,0,0,0.08
2013-5-5,77.4,63.0,51.6,47.8,23.8,6.1,68,31,8,30.32,30.26,0,0,0,0.00
2013-5-6,79.5,65.4,51.8,29.5,15.3,6.4,40,17,7,30.35,30.30,0,0,0,0.00
2013-5-7,84.0,67.5,52.5,30.4,11.6,5.9,36,13,6,30.35,30.30,0,0,0,0.00
2013-5-8,83.5,67.9,51.6,29.0,14.6,6.1,36,15,6,30.35,30.30,0,0,0,0.00
2013-5-9,73.6,63.7,60.4,48.6,38.8,14.5,63,43,11,30.30,30.12,0,0,0,0.51
2013-5-10,60.6,52.0,46.9,49.0,32.6,22.9,66,49,30,30.30,30.12,0,0,0,0.04
2013-5-11,59.7,51.3,44.2,41.6,13.9,-5.0,65,29,11,30.41,30.18,0,0,0,0.00
2013-5-12,61.0,48.3,38.5,7.6,-0.1,-7.5,19,13,11,30.47,30.35,0,0,0,0.00
2013-5-13,75.0,56.1,36.7,22.0,9.2,-2.2,42,18,8,30.47,30.24,0,0,0,0.00
2013-5-14,99.0,74.9,56.5,24.2,12.0,5.0,24,10,4,30.24,30.03,0,0,0,0.00
2013-5-15,76.5,75.6,73.6,10.7,10.1,8.6,8,8,8,30.12,30.06,0,0,0,0.00
2013-5-17,79.7,71.8,65.7,36.9,25.1,9.5,34,20,7,30.35,30.30,0,0,0,0.00
2013-5-18,83.8,72.3,62.8,49.9,28.5,8.6,56,26,6,30.35,30.26,0,0,0,0.00
2013-5-19,93.2,74.2,64.8,45.8,31.3,15.0,44,25,6,30.30,30.00,0,0,0,0.51
2013-5-20,85.5,71.1,62.1,47.3,30.2,8.6,56,29,6,30.12,29.91,0,0,0,0.12
2013-5-21,81.9,70.1,62.4,43.2,25.9,8.4,47,23,7,30.06,29.94,0,0,0,0.00
2013-5-22,70.0,62.9,59.4,42.2,30.0,12.4,50,32,12,30.12,29.94,0,0,0,0.00
2013-5-23,69.3,59.3,50.9,42.1,23.3,4.5,62,31,10,30.59,30.09,0,0,0,0.04
2013-5-24,75.2,56.9,40.8,23.6,10.8,-0.3,40,19,8,30.74,30.59,0,0,0,0.00
2013-5-25,57.7,50.4,46.8,36.1,25.0,3.5,59,41,12,30.68,30.53,0,0,0,0.67
2013-5-26,58.5,53.0,48.6,48.3,37.7,25.8,70,56,39,30.56,30.32,0,0,0,2.60
2013-5-27,71.8,63.7,57.2,58.2,48.9,38.8,75,61,31,30.35,30.12,0,0,0,0.39
2013-5-28,78.3,68.9,63.5,56.9,49.0,41.1,66,51,31,30.21,30.03,0,0,0,0.35
2013-5-29,88.7,73.6,61.3,56.9,37.1,16.5,68,35,8,30.26,30.09,0,0,0,0.12
2013-5-30,85.3,71.9,62.6,48.5,36.3,16.5,60,31,8,30.21,30.03,0,0,0,0.55
2013-5-31,78.4,68.0,61.9,55.1,43.2,22.2,66,45,15,30.18,30.03,0,0,0,0.04
2013-6-1,80.2,69.0,63.0,51.2,36.9,8.4,56,36,7,30.15,30.03,0,0,0,0.00
2013-6-2,64.8,59.1,49.5,40.3,21.7,5.9,47,27,10,30.38,30.15,0,0,0,0.00
2013-6-3,76.5,61.3,48.6,36.9,17.4,5.9,52,23,8,30.44,30.35,0,0,0,0.00
2013-6-4,75.4,64.8,53.6,21.9,14.1,6.6,28,15,8,30.50,30.38,0,0,0,0.00
2013-6-5,67.3,62.6,57.6,44.7,32.1,12.3,58,34,13,30.41,30.26,0,0,0,0.08
2013-6-6,70.3,60.5,56.3,50.1,40.5,22.8,68,50,17,30.30,30.21,0,0,0,0.43
2013-6-7,73.8,65.1,57.2,35.3,19.1,8.3,41,21,8,30.32,30.26,0,0,0,0.00
2013-6-8,80.1,67.1,54.7,31.5,16.1,8.3,36,17,7,30.35,30.30,0,0,0,0.00
2013-6-9,73.2,67.1,61.7,46.8,29.6,7.7,53,28,10,30.32,30.15,0,0,0,0.00
2013-6-10,79.5,67.3,59.0,53.6,36.2,11.4,67,39,8,30.32,30.12,0,0,0,0.00
2013-6-11,92.8,75.2,60.6,53.9,34.4,6.2,62,30,5,30.35,27.43,0,0,0,0.00
2013-6-12,93.4,81.5,70.3,50.8,33.4,16.4,50,22,6,27.43,25.78,0,0,0,0.00
2013-6-13,84.0,73.0,63.5,47.0,21.8,8.3,46,19,6,27.19,27.19,0,0,0,0.00
2013-6-14,84.2,70.7,59.0,34.4,19.5,8.4,35,17,6,27.19,27.19,0,0,0,0.00
2013-6-15,85.1,72.7,65.8,47.9,37.4,16.5,44,29,8,27.19,27.19,0,0,0,0.00
2013-6-16,88.9,74.6,65.7,47.1,30.7,8.4,48,26,5,27.19,27.19,0,0,0,0.00
2013-6-17,90.0,75.9,63.5,55.0,27.4,8.4,60,24,5,27.19,27.19,0,0,0,0.00
2013-6-18,86.4,72.4,61.9,39.6,18.4,8.3,35,15,6,27.19,27.19,0,0,0,0.00
2013-6-19,88.2,71.5,56.8,24.6,14.7,8.4,27,13,5,27.19,27.19,0,0,0,0.00
2013-6-20,96.6,79.5,61.9,32.8,18.2,6.0,32,12,4,27.19,27.19,0,0,0,0.00
2013-6-21,81.9,76.2,69.1,44.3,32.8,16.3,34,21,10,27.19,27.19,0,0,0,0.00
2013-6-22,97.0,80.5,70.7,47.4,34.3,16.4,36,22,6,27.19,27.19,0,0,0,0.00
2013-6-23,90.1,77.4,68.9,40.8,28.6,8.6,34,19,6,27.19,27.19,0,0,0,0.00
2013-6-24,82.8,69.3,65.5,64.9,51.3,38.5,70,54,23,27.19,27.19,0,0,0,3.03
2013-6-25,88.3,77.1,66.7,67.3,50.1,30.3,72,45,13,27.19,27.19,0,0,0,0.00
2013-6-26,90.0,76.6,67.1,60.5,46.3,17.4,65,37,7,27.19,27.19,0,0,0,0.28
2013-6-27,87.3,77.8,69.4,59.2,40.1,16.5,63,32,8,27.19,27.19,0,0,0,0.00
2013-6-28,84.9,74.7,66.9,37.0,22.5,8.6,33,17,6,27.19,27.19,0,0,0,0.00
2013-6-29,72.0,67.1,64.8,54.2,42.3,30.7,58,41,23,27.19,27.19,0,0,0,0.28
2013-6-30,81.5,70.9,61.7,42.6,23.4,8.4,48,22,7,27.19,27.19,0,0,0,0.00
2013-7-1,82.8,69.9,59.5,26.7,14.1,6.7,28,13,6,27.19,27.19,0,0,0,0.00
2013-7-2,83.1,69.4,57.7,33.5,17.5,6.6,37,17,6,27.19,27.19,0,0,0,0.00
2013-7-3,79.9,64.7,54.3,40.8,22.3,8.3,50,24,7,30.09,27.19,0,0,0,0.00
2013-7-4,91.6,73.9,59.5,38.5,21.6,6.0,38,18,4,30.06,29.97,0,0,0,0.00
2013-7-5,92.7,77.5,64.9,39.9,21.6,6.0,36,16,4,30.06,29.97,0,0,0,0.00
2013-7-6,92.1,74.1,66.0,42.2,32.2,6.0,38,25,5,30.03,29.97,0,0,0,0.00
2013-7-7,87.1,82.2,78.6,36.0,29.3,16.6,21,16,8,29.97,29.94,0,0,0,0.00
2013-7-8,90.0,79.5,70.9,58.6,42.5,25.1,58,30,10,29.97,29.94,0,0,0,0.31
2013-7-9,90.0,79.3,73.9,61.6,51.7,39.0,59,40,17,30.00,29.85,0,0,0,0.04
2013-7-10,86.5,77.7,65.5,62.3,31.6,8.6,61,25,6,30.00,29.82,0,0,0,0.00
2013-7-11,87.8,74.9,61.9,40.3,19.5,8.4,45,17,5,30.12,30.00,0,0,0,0.00
2013-7-12,91.0,73.4,59.4,40.0,21.6,8.4,45,20,5,30.12,30.03,0,0,0,0.00
2013-7-13,90.9,74.5,60.3,35.5,21.6,8.4,36,17,5,30.12,30.03,0,0,0,0.00
2013-7-14,95.0,78.9,65.8,42.6,28.5,6.0,41,20,4,30.18,30.09,0,0,0,0.00
2013-7-15,96.6,82.5,71.6,50.4,35.7,16.4,44,23,6,30.24,30.15,0,0,0,0.00
2013-7-16,97.5,83.2,73.6,58.6,39.7,16.4,55,27,6,30.26,30.18,0,0,0,0.00
2013-7-17,98.1,83.4,73.8,54.0,36.7,16.4,46,23,6,30.30,30.18,0,0,0,0.00
2013-7-18,96.6,84.5,74.3,58.6,36.1,16.4,53,23,6,30.18,29.97,0,0,0,0.00
2013-7-19,97.0,85.0,76.6,45.4,31.3,16.4,32,18,6,29.97,29.79,0,0,0,0.00
2013-7-20,91.2,78.8,67.8,41.3,23.2,8.4,36,16,5,29.94,29.82,0,0,0,0.00
2013-7-21,88.2,75.8,67.3,45.3,33.2,16.5,43,24,8,29.94,29.82,0,0,0,0.00
2013-7-22,93.4,77.2,66.6,54.7,37.2,15.4,58,30,6,29.88,29.73,0,0,0,0.35
2013-7-23,77.9,70.1,65.1,57.8,34.1,9.4,69,34,8,29.97,29.76,0,0,0,0.00
2013-7-24,80.4,67.6,58.5,38.7,21.4,8.4,45,21,7,30.06,29.97,0,0,0,0.00
2013-7-25,86.9,71.1,57.4,38.4,23.1,8.6,45,21,6,30.09,30.03,0,0,0,0.00
2013-7-26,83.3,68.4,61.2,56.4,41.9,18.4,64,41,14,30.03,29.88,0,0,0,0.51
2013-7-27,68.2,60.9,56.3,37.4,20.8,6.4,45,24,10,29.97,29.91,0,0,0,0.00
2013-7-28,74.8,63.2,55.2,30.2,17.8,6.6,35,19,8,30.06,29.88,0,0,0,0.00
2013-7-29,81.9,66.1,53.1,43.4,22.5,8.3,54,25,7,30.15,30.06,0,0,0,0.00
2013-7-30,67.5,66.0,63.0,55.7,42.1,12.6,68,48,12,30.12,30.03,0,0,0,0.51
2013-7-31,81.0,70.0,65.5,61.2,48.0,23.1,75,51,14,30.06,29.97,0,0,0,0.00
2013-8-1,84.4,71.9,61.2,53.0,30.8,8.6,63,30,6,30.06,29.91,0,0,0,0.00
2013-8-2,87.6,74.7,67.3,42.4,32.0,16.3,34,23,8,29.97,29.88,0,0,0,0.00
2013-8-3,84.2,70.6,62.1,38.6,23.3,8.4,40,21,6,30.12,29.97,0,0,0,0.00
2013-8-4,84.6,69.0,56.8,40.3,20.2,8.4,46,20,6,30.18,30.06,0,0,0,0.00
2013-8-5,75.7,66.7,60.8,54.1,39.2,26.8,61,38,23,30.06,29.85,0,0,0,0.91
2013-8-6,86.7,75.2,67.5,62.0,50.4,37.6,68,45,19,29.88,29.79,0,0,0,0.00
2013-8-7,87.3,76.8,67.1,62.9,39.7,8.9,65,33,6,29.94,29.76,0,0,0,0.00
2013-8-8,84.9,72.0,62.6,45.2,30.7,8.6,48,26,6,30.03,29.94,0,0,0,0.00
2013-8-9,82.6,71.6,63.9,47.6,38.4,18.0,53,32,11,30.06,29.97,0,0,0,0.00
2013-8-10,81.9,70.1,61.2,38.4,23.8,8.4,39,22,7,30.18,30.06,0,0,0,0.00
2013-8-11,85.5,71.8,60.3,40.2,30.4,16.5,43,25,8,30.12,30.00,0,0,0,0.00
2013-8-12,83.8,73.8,66.7,42.2,32.2,15.2,37,24,9,30.03,29.91,0,0,0,0.00
2013-8-13,77.7,66.1,56.3,39.1,21.0,6.7,44,21,8,30.15,29.97,0,0,0,0.00
2013-8-14,81.5,65.1,53.8,33.5,19.0,7.8,46,21,7,30.18,30.12,0,0,0,0.00
2013-8-15,75.7,65.1,57.4,34.4,22.2,8.3,37,23,8,30.15,30.09,0,0,0,0.00
2013-8-16,81.9,67.5,55.9,47.1,24.8,8.4,58,27,7,30.18,30.12,0,0,0,0.00
2013-8-17,87.3,69.5,57.6,45.7,25.6,8.4,54,26,6,30.21,30.12,0,0,0,0.00
2013-8-18,87.8,70.5,57.2,45.1,25.5,8.4,52,24,5,30.18,30.09,0,0,0,0.00
2013-8-19,87.8,72.5,61.7,42.9,30.4,8.4,44,25,6,30.12,30.00,0,0,0,0.00
2013-8-20,90.9,77.0,66.4,41.9,28.3,8.4,39,21,5,30.09,30.00,0,0,0,0.00
2013-8-21,92.7,79.2,69.6,42.4,30.4,16.5,35,20,7,30.06,29.97,0,0,0,0.00
2013-8-22,77.9,74.2,68.5,45.3,38.3,32.4,43,28,20,30.12,29.97,0,0,0,0.00
2013-8-23,90.0,74.0,64.0,55.2,31.4,8.4,63,30,5,30.15,30.09,0,0,0,0.00
2013-8-24,92.8,76.5,63.3,39.5,24.8,13.7,28,16,7,30.21,30.12,0,0,0,0.08
2013-8-25,94.8,79.9,70.2,40.6,29.7,6.0,32,19,4,30.24,30.12,0,0,0,0.00
2013-8-26,90.7,77.6,69.4,42.8,35.4,10.1,34,24,7,30.12,30.00,0,0,0,0.00
2013-8-27,97.9,83.6,73.0,50.4,29.7,16.4,42,18,6,30.00,29.85,0,0,0,0.00
2013-8-28,95.4,83.0,74.3,46.3,31.8,16.4,32,18,6,30.00,29.88,0,0,0,0.00
2013-8-29,94.1,79.4,72.5,47.5,38.7,16.4,36,26,6,30.06,29.94,0,0,0,0.00
2013-8-30,100.2,83.6,73.0,60.8,36.6,16.0,58,26,5,29.97,29.79,0,0,0,0.00
2013-8-31,83.8,75.5,70.5,47.9,39.5,23.3,43,29,11,29.82,29.76,0,0,0,0.04
2013-9-1,91.2,76.5,66.7,60.0,33.9,8.4,64,29,5,29.88,29.76,0,0,0,0.00
2013-9-2,81.5,69.1,60.1,40.3,24.4,8.4,43,22,7,30.00,29.85,0,0,0,0.00
2013-9-3,81.3,65.2,53.1,42.2,23.8,8.4,53,26,7,30.09,29.97,0,0,0,0.00
2013-9-4,89.4,70.2,54.5,45.0,26.4,8.4,54,26,5,30.12,30.03,0,0,0,0.00
2013-9-5,92.8,75.5,64.6,39.5,25.9,6.0,37,19,4,30.21,30.09,0,0,0,0.00
2013-9-6,94.5,74.6,60.1,30.0,19.3,6.0,27,15,4,30.18,29.97,0,0,0,0.00
2013-9-7,95.7,79.2,67.5,36.9,26.5,16.4,32,17,6,30.00,29.85,0,0,0,0.00
2013-9-8,91.4,78.8,71.4,44.3,33.9,16.5,37,23,7,30.00,29.85,0,0,0,0.00
2013-9-9,100.6,83.0,70.9,58.8,31.4,8.4,59,24,5,29.88,29.82,0,0,0,0.00
2013-9-10,99.0,83.5,71.4,33.0,17.1,6.0,23,9,4,30.00,29.88,0,0,0,0.00
2013-9-11,87.8,77.2,70.5,47.5,33.2,16.5,44,24,8,30.06,29.97,0,0,0,0.00
2013-9-12,82.2,71.0,61.5,49.6,22.3,6.4,49,21,7,30.09,30.00,0,0,0,0.00
2013-9-13,74.8,61.0,52.9,24.4,11.2,3.4,32,15,8,30.18,30.09,0,0,0,0.00
2013-9-14,80.1,61.4,45.9,26.8,10.8,2.4,38,16,7,30.12,29.97,0,0,0,0.00
2013-9-15,62.4,59.4,55.9,47.8,31.9,5.9,62,41,11,30.15,29.91,0,0,0,0.43
2013-9-16,73.6,59.7,54.0,43.1,24.9,5.9,62,33,8,30.30,30.15,0,0,0,0.00
2013-9-17,71.2,61.0,48.7,34.5,24.4,8.5,49,28,9,30.26,30.03,0,0,0,0.00
2013-9-18,82.0,71.5,61.5,52.9,37.4,27.8,50,29,19,30.06,29.85,0,0,0,0.12
2013-9-19,95.4,78.7,67.5,51.9,34.7,8.4,57,27,5,29.91,29.73,0,0,0,0.24
2013-9-20,70.0,64.9,58.1,55.7,35.8,8.3,70,40,9,29.88,29.79,0,0,0,0.04
2013-9-21,72.1,58.9,50.0,33.3,20.7,6.3,48,27,9,29.94,29.85,0,0,0,0.00
2013-9-22,76.1,59.7,47.7,32.8,17.5,5.8,49,25,8,30.00,29.91,0,0,0,0.00
2013-9-23,81.0,62.0,48.2,26.9,16.1,6.4,39,20,7,30.03,29.94,0,0,0,0.00
2013-9-24,81.1,63.0,49.6,28.7,16.9,7.0,39,20,7,29.94,29.85,0,0,0,0.00
2013-9-25,81.1,64.5,52.9,35.1,18.9,6.6,46,21,7,29.91,29.85,0,0,0,0.00
2013-9-26,88.9,67.9,52.5,37.7,19.4,6.6,50,21,5,30.00,29.91,0,0,0,0.00
2013-9-27,90.0,70.4,56.8,23.9,12.0,5.9,26,12,5,30.06,30.00,0,0,0,0.00
2013-9-28,84.0,66.7,55.9,49.3,28.6,7.5,58,29,6,30.00,29.88,0,0,0,0.04
2013-9-29,77.7,59.0,48.0,47.0,24.5,4.8,68,36,8,30.03,29.94,0,0,0,0.00
2013-9-30,81.7,63.1,48.6,30.3,16.3,6.8,41,20,7,29.97,29.82,0,0,0,0.00
2013-10-1,85.6,69.7,59.0,50.2,31.5,8.6,57,30,6,29.94,29.85,0,0,0,0.00
2013-10-2,90.0,72.1,61.9,45.2,24.5,8.3,52,23,5,30.03,29.91,0,0,0,0.00
2013-10-3,78.4,70.2,66.4,62.0,48.9,36.6,68,49,28,29.91,29.82,0,0,0,0.47
2013-10-4,79.5,71.3,66.4,61.3,45.1,32.8,67,42,20,29.97,29.82,0,0,0,0.04
2013-10-5,75.2,68.1,53.1,55.4,38.3,7.0,57,35,15,29.88,29.79,0,0,0,0.00
2013-10-6,56.3,48.1,42.8,27.0,16.4,2.4,45,30,12,29.79,29.65,0,0,0,0.00
2013-10-7,72.0,56.4,43.2,34.8,19.5,5.9,55,29,9,30.03,29.73,0,0,0,0.00
2013-10-8,82.9,62.1,46.4,33.7,16.5,5.9,49,22,6,30.09,30.03,0,0,0,0.00
2013-10-9,81.1,61.1,49.1,29.4,15.8,5.2,40,20,7,30.15,30.06,0,0,0,0.00
2013-10-10,83.5,61.0,45.1,34.6,20.4,8.2,48,26,6,30.09,29.97,0,0,0,0.00
2013-10-11,81.3,66.6,56.3,41.6,21.8,8.3,51,24,7,29.97,29.85,0,0,0,0.00
2013-10-12,72.5,62.4,49.3,37.1,15.5,2.0,38,18,9,30.18,29.85,0,0,0,0.00
2013-10-13,69.3,52.6,41.7,16.6,7.3,-0.3,31,17,10,30.32,30.18,0,0,0,0.04
2013-10-14,69.6,52.9,37.9,22.8,10.5,2.7,40,21,10,30.32,29.97,0,0,0,0.00
2013-10-15,68.4,57.6,49.5,50.4,20.0,2.4,59,27,10,29.97,29.73,0,0,0,0.04
2013-10-16,52.3,50.3,48.7,24.7,20.3,12.4,38,30,21,29.91,29.82,0,0,0,0.00
2013-10-17,63.9,50.7,43.0,33.2,16.7,0.7,51,29,11,29.88,29.76,0,0,0,0.00
2013-10-18,50.5,46.2,42.1,22.4,12.1,1.9,40,26,14,29.91,29.79,0,0,0,0.00
2013-10-19,57.0,45.5,36.3,14.3,8.4,1.6,37,23,12,29.88,29.73,0,0,0,0.00
2013-10-20,61.9,50.2,38.5,19.8,12.6,3.5,40,25,11,29.79,29.67,0,0,0,0.00
2013-10-21,53.1,42.7,33.1,15.8,0.7,-7.6,31,18,11,29.94,29.79,0,0,0,0.00
2013-10-22,36.7,34.1,29.1,24.3,15.5,5.9,61,47,32,29.94,29.82,0,0,0,0.16
2013-10-23,43.0,37.3,31.5,25.6,13.6,-3.3,64,42,16,30.00,29.91,0,0,0,0.24
2013-10-24,40.5,35.8,28.0,16.5,-5.3,-9.1,41,17,13,30.26,30.00,0,0,0,0.00
2013-10-25,56.7,40.1,27.0,18.0,3.0,-5.0,46,25,11,30.35,30.00,0,0,0,0.00
2013-10-26,55.8,45.3,35.6,5.1,-1.5,-7.6,27,14,11,30.06,29.85,0,0,0,0.00
2013-10-27,59.9,42.3,29.1,19.2,4.7,-5.3,46,24,11,30.03,29.91,0,0,0,0.00
2013-10-28,63.9,45.5,34.9,13.1,5.8,-3.6,33,21,11,30.26,29.97,0,0,0,0.00
2013-10-29,59.4,46.7,36.9,26.1,10.7,2.7,42,26,12,30.26,30.03,0,0,0,0.00
2013-10-30,60.4,55.8,52.3,51.0,41.3,26.1,71,59,36,30.03,29.70,0,0,0,1.30
2013-10-31,62.6,54.6,43.5,53.4,46.0,35.1,74,73,71,29.70,29.32,0,0,0,0.24
2013-11-1,49.1,45.5,42.6,36.6,28.7,18.9,71,53,32,29.73,29.47,0,0,0,0.00
2013-11-2,53.4,41.7,32.4,28.4,13.3,-2.3,59,36,13,30.09,29.73,0,0,0,0.00
2013-11-3,58.1,42.2,28.8,23.6,7.0,-4.0,54,28,11,30.21,30.06,0,0,0,0.00
2013-11-4,57.4,50.6,44.2,18.7,6.4,-0.3,26,17,12,30.09,29.97,0,0,0,0.00
2013-11-5,55.8,52.8,50.5,40.7,30.5,18.1,59,44,26,30.15,29.82,0,0,0,0.08
2013-11-6,57.0,44.6,32.9,45.8,21.0,-4.4,66,43,15,30.15,29.73,0,0,0,0.20
2013-11-7,42.3,34.7,27.3,15.1,6.2,-1.3,43,31,16,30.21,30.15,0,0,0,0.00
2013-11-8,50.2,40.7,26.8,15.0,2.0,-4.3,43,22,11,30.24,29.79,0,0,0,0.00
2013-11-9,61.0,49.9,40.6,8.8,3.6,-0.3,26,15,11,30.15,29.79,0,0,0,0.04
2013-11-10,51.1,41.0,31.3,7.6,-0.4,-6.5,34,18,11,30.32,30.15,0,0,0,0.00
2013-11-11,48.2,38.1,22.6,16.6,2.4,-11.6,53,25,14,30.50,30.00,0,0,0,0.00
2013-11-12,33.1,23.6,18.1,-9.7,-12.7,-16.8,25,19,15,30.68,30.50,0,0,0,0.00
2013-11-13,44.4,31.5,18.1,-3.5,-7.2,-13.3,34,20,13,30.53,30.06,0,0,0,0.00
2013-11-14,54.0,44.2,34.2,4.1,-4.2,-9.0,15,13,11,30.06,29.85,0,0,0,0.00
2013-11-15,57.0,44.9,36.5,7.3,-1.3,-8.3,23,14,11,29.91,29.79,0,0,0,0.00
2013-11-16,60.4,52.6,40.3,35.3,27.6,6.6,43,38,23,29.79,29.47,0,0,0,0.00
2013-11-17,71.1,53.6,42.4,50.2,29.8,12.2,63,41,12,29.82,29.17,0,0,0,0.28
2013-11-18,44.6,38.1,30.4,15.4,3.5,-7.9,40,25,12,30.21,29.82,0,0,0,0.00
2013-11-19,45.1,36.3,26.2,9.0,-0.9,-7.6,42,22,12,30.26,30.12,0,0,0,0.00
2013-11-20,39.9,36.8,34.0,23.8,9.9,-4.2,54,34,16,30.12,29.97,0,0,0,0.39
2013-11-21,44.1,40.8,36.5,30.5,24.5,21.2,60,52,43,30.15,29.97,0,0,0,0.00
2013-11-23,23.2,18.5,12.2,-15.3,-18.3,-22.3,19,18,17,30.65,30.59,0,0,0,0.00
2013-11-24,28.6,18.5,8.4,-8.9,-18.3,-25.5,34,18,15,30.65,30.24,0,0,0,0.00
2013-11-25,34.5,29.6,21.0,4.2,-7.9,-17.1,31,19,15,30.24,30.00,0,0,0,0.00
2013-11-26,32.5,26.4,15.4,7.0,-7.3,-21.5,37,23,15,30.18,30.00,0,0,0,0.00
2013-11-27,27.3,19.1,11.5,-13.1,-18.1,-22.9,19,18,16,30.26,30.15,0,0,0,0.00
2013-11-28,34.3,25.7,19.8,-8.1,-13.1,-17.8,27,17,15,30.38,30.03,0,0,0,0.00
2013-11-29,36.7,26.5,14.4,3.2,-7.6,-12.0,41,24,14,30.50,30.26,0,0,0,0.00
2013-11-30,49.6,37.2,29.5,8.1,0.1,-7.9,36,22,11,30.26,29.97,0,0,0,0.00
2013-12-1,45.0,36.9,29.8,12.2,2.5,-6.8,41,26,12,30.06,29.88,0,0,0,0.00
2013-12-2,45.1,38.1,33.4,19.1,9.8,-5.3,48,32,15,29.88,29.62,0,0,0,0.04
2013-12-3,49.5,42.7,35.4,38.2,29.4,18.8,65,59,48,29.62,29.53,0,0,0,0.00
2013-12-4,52.5,44.5,27.3,43.8,31.0,3.2,72,60,36,29.73,29.44,0,0,0,0.00
2013-12-5,27.3,20.4,16.2,3.1,-13.3,-20.0,39,22,17,30.21,29.73,0,0,0,0.00
2013-12-6,18.1,13.0,9.1,-17.0,-21.7,-24.9,21,19,18,30.50,30.21,0,0,0,0.00
2013-12-7,16.5,9.7,2.5,-19.3,-24.5,-30.5,19,19,18,30.65,30.50,0,0,0,0.00
2013-12-8,21.7,18.3,12.9,3.6,-8.1,-21.7,45,31,18,30.50,29.91,0,0,0,0.00
2013-12-9,21.7,10.3,-1.3,3.6,-16.5,-33.7,46,30,19,30.18,29.91,0,0,0,0.00
2013-12-10,20.8,13.8,-1.7,-17.2,-21.8,-34.0,19,18,17,30.21,29.91,0,0,0,0.00
2013-12-11,18.3,9.5,-1.1,-4.9,-20.9,-30.9,38,23,18,30.50,30.18,0,0,0,0.00
2013-12-12,23.2,14.1,-2.6,-11.7,-19.3,-32.1,29,21,17,30.47,30.12,0,0,0,0.00
2013-12-13,30.6,24.5,12.9,8.7,-3.0,-13.4,46,31,18,30.12,29.97,0,0,0,0.00
2013-12-14,28.2,24.6,16.0,12.1,5.5,-7.7,53,44,34,30.00,29.88,0,0,0,0.00
2013-12-15,15.8,13.1,9.1,-7.8,-17.2,-21.8,34,24,19,30.06,29.94,0,0,0,0.00
2013-12-16,21.2,16.5,12.2,3.6,-10.9,-22.3,46,29,19,30.06,29.94,0,0,0,0.00
2013-12-17,36.1,26.1,18.1,11.5,-3.2,-13.3,50,31,14,30.09,29.97,0,0,0,0.00
2013-12-18,39.7,28.2,14.7,7.8,-6.2,-15.1,35,23,13,30.09,29.73,0,0,0,0.00
2013-12-19,39.9,35.5,32.2,19.5,11.7,4.4,55,38,23,29.82,29.67,0,0,0,0.16
2013-12-20,33.8,29.6,27.5,21.0,17.4,15.4,62,60,55,29.79,29.67,0,0,0,0.04
2013-12-21,30.4,27.8,26.1,18.0,15.2,13.9,62,59,55,29.82,29.62,0,0,0,0.00
2013-12-22,30.2,25.3,16.5,17.5,9.1,-4.9,62,50,38,30.12,29.59,0,0,0,0.00
2013-12-23,16.3,3.2,-1.7,-4.9,-17.3,-21.7,38,37,37,30.41,30.12,0,0,0,0.00
2013-12-24,18.1,3.6,-8.9,-6.2,-17.4,-28.2,37,36,25,30.47,30.18,0,0,0,0.00
2013-12-25,26.8,23.4,18.3,6.4,-1.1,-13.2,42,34,22,30.18,30.06,0,0,0,0.00
2013-12-26,36.0,26.3,14.4,7.5,-1.0,-10.6,43,32,15,30.18,30.03,0,0,0,0.00
2013-12-27,38.8,30.5,21.2,8.3,4.3,0.9,46,34,21,30.21,30.00,0,0,0,0.00
2013-12-28,46.2,39.8,33.8,13.1,4.6,-6.3,40,25,13,30.00,29.73,0,0,0,0.04
2013-12-29,39.6,19.9,-0.6,11.6,-10.2,-33.1,47,27,16,30.18,29.73,0,0,0,0.00
2013-12-30,11.1,4.0,-4.4,-23.2,-29.2,-36.3,19,19,19,30.26,30.09,0,0,0,0.00
2013-12-31,15.8,8.1,-0.9,-10.5,-24.3,-33.4,31,21,19,30.26,30.09,0,0,0,0.00
2014-1-1,14.7,11.2,8.6,-7.2,-15.9,-22.6,37,28,22,30.18,30.12,0,0,0,0.00
2014-1-2,14.9,8.8,-2.2,-8.0,-19.1,-34.6,37,27,19,30.35,30.12,0,0,0,0.00